Regional Weather Roundup
Issued by NWS Newport/Morehead, NC

Current Version | Previous Version | Text Only | Print | Product List | Glossary Off
Versions: 1 2 3 4 5 6 7 8 9 10 11 12 13 14 15 16 17 18 19 20 21 22 23 24 25 26 27 28 29 30 31 32 33 34 35 36 37 38 39 40 41 42 43 44 45 46 47 48 49 50
000 ASUS42 KMHX 080712 RWRMHX WEATHER ROUNDUP FOR EASTERN NORTH CAROLINA NATIONAL WEATHER SERVICE NEWPORT/MOREHEAD CITY NC 200 AM EST THU DEC 08 2016 NOTE: "FAIR" INDICATES FEW OR NO CLOUDS BELOW 12,000 FEET WITH NO SIGNIFICANT WEATHER AND/OR OBSTRUCTIONS TO VISIBILITY NCZ015>017-031-032-045>047-102-103-080800- NORTH COAST CITY SKY/WX TMP DP RH WIND PRES REMARKS EDENTON PTCLDY 44 42 93 CALM 30.09S ELIZABETH CITY CLOUDY 41 40 96 CALM 30.08S KITTY HAWK SUNNY 46 46 100 CALM 30.06F MANTEO CLEAR 40 40 100 CALM 30.08S FOG $$ NCZ045>047-081-094-103-104-080800- CENTRAL COAST CITY SKY/WX TMP DP RH WIND PRES REMARKS FRISCO NOT AVBL $$ NCZ095-097-098-100-101-080800- SOUTHERN COAST CITY SKY/WX TMP DP RH WIND PRES REMARKS BEAUFORT CLOUDY 47 46 97 E3 30.07F CEDAR ISLAND NOT AVBL JACKSONVILLE CLOUDY 47 46 97 CALM 30.07S PINEY ISLAND CLOUDY N/A N/A N/A E6 30.07S WILMINGTON MOCLDY 44 44 100 CALM 30.07S $$ NCZ011>013-027>030-043-044-078>080-089-090>093-098-080800- COASTAL PLAIN CITY SKY/WX TMP DP RH WIND PRES REMARKS AHOSKIE CLOUDY 45 42 92 SE3 30.07F CLINTON CLOUDY 50 49 97 CALM 30.06S ELIZABETHTOWN CLOUDY 49 48 99 SE3 30.06S GOLDSBORO CLOUDY 50 48 95 SE6 30.03F GREENVILLE CLOUDY 45 45 100 CALM 30.09S HAVELOCK CLOUDY 48 46 93 CALM 30.08F KENANSVILLE NOT AVBL KINSTON CLOUDY 46 46 97 CALM 30.08R NEW BERN CLOUDY 47 45 93 CALM 30.08F RICHLANDS CLOUDY 48 46 93 CALM 30.07F ROCKY MOUNT CLOUDY 46 46 100 CALM 30.06S WASHINGTON MOCLDY 42 41 98 CALM 30.08S WHITEVILLE CLEAR 44 42 95 CALM 30.06S $$ AMZ130-135-150-152-154-156-158-170-250-252-270-ANZ085-086-088-633-658-670-080800- MARINE OBSERVATIONS STATION/POSITION TIME TEMP WIND PRES WAVE SWELL AIR SEA DIR/SP/G HT/PER HT/PER (UTC) (F) (DEG/KT/KT) (MB) (FT/S) (FT/S) CHESAPEAKE LIGHT NOT AVBL 64 E VA BEACH NOT AVBL DUCK 0648 54 270/ 5/ 5 1017.7 2 E DUCK NOT AVBL OREGON INLET 0636 56 280/ 5/ 7 1018.6 13E OREGON INLT NOT AVBL HATTERAS CG 0648 60 350/ 5/ 5 1018.2 DIAMOND BUOY NOT AVBL CAPE LOOKOUT NOT AVBL BEAUFORT LAB 0648 55 50/ 4/ 5 1017.2 30 SE NEW RVR IN 0608 58 71 70/ 2/ 4 1018.1 30 SE NEW RVR IN NOT AVBL 27 SE WRIGHTSVLE 0608 60 70 300/ 6/ 10 1017.7 5 SE WRIGHTSVLE NOT AVBL 225 S CAPE HAT NOT AVBL 41 SE CHARLESTON NOT AVBL $$

USA.gov is the U.S. government's official web portal to all federal, state and local government web resources and services.